Date String (YYYY-MM-DD hh:mm:ss) UTC,Instrument flags,absolute air pressure of the measurement (hPa),sample flow rate (lpm),inlet stack bypass flow (lpm),air temperature of the measurement (°C),ambient temperature measured by the external sensor (°C),aerosol sample conditioner tube jacket temperature (°C),OPC LED temperature (°C),internal box temperature (°C),relative humidity of the measurement (%),span deviation,mass concentration of particles derived from Lorenz-Mie calculation of OPC scattering (μg/m³),mass concentration of particles derived from Lorenz-Mie calculation of OPC scattering (μg/m³),mass concentration of particles derived from Lorenz-Mie calculation of OPC scattering (μg/m³)
DateTimeUTC,F1_M11,P_M11,Q1_M11,Q2_M11,T1_M11,T2_M11,T3_M11,T4_M11,T5_M11,U1_M11,ZSPAN_M11,X2_M11,X0_M11,X1_M11
2024-04-10 07:00:00,SystemResetWarning,0828.1,4.99,000.00,025.2,024.4,000.0,033.6,027.0,009.8,0000.0,0003.46,0009.64,0001.63
2024-04-10 07:01:00,SystemResetWarning,0828.1,5.00,000.00,025.2,024.4,000.0,033.6,027.0,009.8,0000.0,0003.41,0009.06,0001.64
2024-04-10 07:02:00,SystemResetWarning,0828.2,4.99,000.00,025.2,024.5,000.0,033.7,027.0,009.9,0000.0,0003.34,0008.78,0001.63
2024-04-10 07:03:00,SystemResetWarning,0828.2,5.00,000.00,025.2,024.5,000.0,033.7,027.0,010.1,0000.0,0003.37,0008.81,0001.63
2024-04-10 07:04:00,SystemResetWarning,0828.2,5.00,000.00,025.2,024.5,000.0,033.7,027.0,010.3,0000.0,0003.40,0008.84,0001.65
2024-04-10 07:05:00,SystemResetWarning,0828.2,5.00,000.00,025.2,024.5,000.0,033.7,027.0,010.5,0000.0,0003.40,0008.81,0001.65
2024-04-10 07:06:00,SystemResetWarning,0828.2,5.00,000.00,025.2,024.5,000.0,033.7,027.0,010.6,0000.0,0003.41,0008.86,0001.65
2024-04-10 07:07:00,SystemResetWarning,0828.2,5.00,000.00,025.2,024.5,000.0,033.7,027.0,010.7,0000.0,0003.35,0008.72,0001.65
2024-04-10 07:08:00,SystemResetWarning,0828.2,5.01,000.00,025.2,024.5,000.0,033.7,027.0,010.7,0000.0,0003.34,0008.61,0001.65
2024-04-10 07:09:00,SystemResetWarning,0828.2,5.01,000.00,025.2,024.5,000.0,033.7,027.0,010.9,0000.0,0003.38,0008.17,0001.64
2024-04-10 07:10:00,SystemResetWarning,0828.2,5.00,000.00,025.2,024.5,000.0,033.7,027.0,010.9,0000.0,0003.44,0008.23,0001.64
2024-04-10 07:11:00,SystemResetWarning,0828.2,4.99,000.00,025.2,024.5,000.0,033.7,027.0,010.8,0000.0,0003.47,0007.97,0001.64
2024-04-10 07:12:00,SystemResetWarning,0828.2,4.99,000.00,025.2,024.5,000.0,033.7,027.0,010.9,0000.0,0003.48,0007.87,0001.65
2024-04-10 07:13:00,SystemResetWarning,0828.2,4.99,000.00,025.2,024.5,000.0,033.7,027.0,011.0,0000.0,0003.56,0008.48,0001.65
2024-04-10 07:14:00,SystemResetWarning,0828.2,5.00,000.00,025.2,024.5,000.0,033.7,027.0,010.9,0000.0,0003.57,0009.30,0001.65
2024-04-10 07:15:00,SystemResetWarning,0828.2,5.01,000.00,025.2,024.5,000.0,033.7,027.0,010.9,0000.0,0003.61,0009.62,0001.64
2024-04-10 07:16:00,SystemResetWarning,0828.2,5.00,000.00,025.2,024.5,000.0,033.7,027.0,011.0,0000.0,0003.57,0009.49,0001.64
2024-04-10 07:17:00,SystemResetWarning,0828.2,5.01,000.00,025.2,024.5,000.0,033.7,027.0,011.0,0000.0,0003.53,0009.44,0001.66
2024-04-10 07:18:00,SystemResetWarning,0828.2,5.00,000.00,025.2,024.5,000.0,033.7,027.0,011.1,0000.0,0003.52,0011.08,0001.66
2024-04-10 07:19:00,SystemResetWarning,0828.2,5.00,000.00,025.2,024.5,000.0,033.7,027.0,011.1,0000.0,0003.58,0011.81,0001.66
2024-04-10 07:20:00,SystemResetWarning,0828.2,5.00,000.00,025.2,024.5,000.0,033.7,027.0,011.0,0000.0,0003.58,0013.44,0001.67
2024-04-10 07:21:00,SystemResetWarning,0828.2,5.00,000.00,025.2,024.5,000.0,033.7,027.0,011.1,0000.0,0003.57,0013.59,0001.67
2024-04-10 07:22:00,SystemResetWarning,0828.2,5.00,000.00,025.2,024.5,000.0,033.7,027.0,011.0,0000.0,0003.57,0013.57,0001.66
2024-04-10 07:23:00,SystemResetWarning,0828.2,5.00,000.00,025.2,024.5,000.0,033.7,027.0,011.1,0000.0,0003.61,0013.72,0001.66
2024-04-10 07:24:00,SystemResetWarning,0828.3,4.99,000.00,025.2,024.5,000.0,033.7,027.0,011.1,0000.0,0003.62,0013.65,0001.67
2024-04-10 07:25:00,SystemResetWarning,0828.2,5.00,000.00,025.2,024.5,000.0,033.7,027.0,011.1,0000.0,0003.59,0013.03,0001.67
2024-04-10 07:26:00,SystemResetWarning,0828.2,5.01,000.00,025.2,024.5,000.0,033.7,027.0,011.1,0000.0,0003.57,0012.49,0001.68
2024-04-10 07:27:00,SystemResetWarning,0828.3,5.00,000.00,025.2,024.5,000.0,033.7,027.1,011.1,0000.0,0003.62,0012.64,0001.68
2024-04-10 07:28:00,SystemResetWarning,0828.3,5.00,000.00,025.2,024.5,000.0,033.7,027.1,010.9,0000.0,0003.64,0012.69,0001.66
2024-04-10 07:29:00,SystemResetWarning,0828.3,5.00,000.00,025.2,024.5,000.0,033.7,027.0,011.0,0000.0,0003.68,0011.91,0001.64
2024-04-10 07:30:00,SystemResetWarning,0828.3,5.00,000.00,025.2,024.5,000.0,033.7,027.0,011.1,0000.0,0003.68,0011.14,0001.65
2024-04-10 07:31:00,SystemResetWarning,0828.3,5.00,000.00,025.2,024.5,000.0,033.7,027.1,011.0,0000.0,0003.70,0009.90,0001.64
2024-04-10 07:32:00,SystemResetWarning,0828.3,5.01,000.00,025.2,024.5,000.0,033.7,027.1,010.9,0000.0,0003.73,0010.10,0001.65
2024-04-10 07:33:00,SystemResetWarning,0828.3,5.01,000.00,025.2,024.5,000.0,033.7,027.1,011.0,0000.0,0003.75,0010.31,0001.65
2024-04-10 07:34:00,SystemResetWarning,0828.3,5.01,000.00,025.2,024.5,000.0,033.7,027.1,011.1,0000.0,0003.75,0010.33,0001.64
2024-04-10 07:35:00,SystemResetWarning,0828.3,5.00,000.00,025.2,024.5,000.0,033.7,027.1,011.2,0000.0,0003.71,0010.31,0001.63
2024-04-10 07:36:00,SystemResetWarning,0828.3,5.00,000.00,025.2,024.5,000.0,033.7,027.1,011.2,0000.0,0003.72,0010.66,0001.62
2024-04-10 07:37:00,SystemResetWarning,0828.3,5.00,000.00,025.2,024.5,000.0,033.7,027.1,011.2,0000.0,0003.70,0011.89,0001.61
2024-04-10 07:38:00,SystemResetWarning,0828.4,5.00,000.00,025.2,024.5,000.0,033.7,027.1,011.3,0000.0,0003.67,0012.02,0001.61
2024-04-10 07:39:00,SystemResetWarning,0828.3,5.00,000.00,025.2,024.5,000.0,033.7,027.1,011.2,0000.0,0003.68,0011.98,0001.62
2024-04-10 07:40:00,SystemResetWarning,0828.3,4.99,000.00,025.2,024.5,000.0,033.7,027.1,011.3,0000.0,0003.65,0011.65,0001.62
2024-04-10 07:41:00,SystemResetWarning,0828.3,5.00,000.00,025.2,024.5,000.0,033.7,027.1,011.3,0000.0,0003.59,0011.35,0001.61
2024-04-10 07:42:00,SystemResetWarning,0828.3,5.01,000.00,025.2,024.5,000.0,033.7,027.1,011.3,0000.0,0003.52,0010.75,0001.61
2024-04-10 07:43:00,SystemResetWarning,0828.3,5.01,000.00,025.2,024.5,000.0,033.7,027.1,011.2,0000.0,0003.48,0010.19,0001.60
2024-04-10 07:44:00,SystemResetWarning,0828.4,5.00,000.00,025.2,024.5,000.0,033.7,027.0,011.0,0000.0,0003.49,0009.99,0001.62
2024-04-10 07:45:00,SystemResetWarning,0828.3,5.00,000.00,025.2,024.5,000.0,033.7,027.0,010.8,0000.0,0003.43,0009.87,0001.62
2024-04-10 07:46:00,SystemResetWarning,0828.4,4.99,000.00,025.2,024.5,000.0,033.7,027.0,010.9,0000.0,0003.41,0009.65,0001.64
2024-04-10 07:47:00,SystemResetWarning,0828.4,4.99,000.00,025.2,024.5,000.0,033.7,027.0,010.8,0000.0,0003.39,0009.29,0001.64
2024-04-10 07:48:00,SystemResetWarning,0828.4,4.99,000.00,025.2,024.4,000.0,033.7,027.0,010.8,0000.0,0003.40,0008.05,0001.65
2024-04-10 07:49:00,SystemResetWarning,0828.4,5.00,000.00,025.2,024.4,000.0,033.7,027.0,010.9,0000.0,0003.38,0007.84,0001.65
2024-04-10 07:50:00,SystemResetWarning,0828.4,5.00,000.00,025.2,024.4,000.0,033.7,027.0,010.8,0000.0,0003.33,0007.92,0001.63
2024-04-10 07:51:00,SystemResetWarning,0828.4,5.01,000.00,025.2,024.4,000.0,033.7,027.0,010.8,0000.0,0003.32,0007.99,0001.63
2024-04-10 07:52:00,SystemResetWarning,0828.4,5.00,000.00,025.2,024.4,000.0,033.7,027.0,010.8,0000.0,0003.37,0008.19,0001.64
2024-04-10 07:53:00,SystemResetWarning,0828.4,5.00,000.00,025.1,024.4,000.0,033.7,027.0,010.8,0000.0,0003.44,0008.44,0001.63
2024-04-10 07:54:00,SystemResetWarning,0828.4,5.01,000.00,025.1,024.4,000.0,033.7,027.0,010.6,0000.0,0003.44,0008.64,0001.61
2024-04-10 07:55:00,SystemResetWarning,0828.4,5.00,000.00,025.1,024.4,000.0,033.7,027.0,010.8,0000.0,0003.37,0008.50,0001.59
2024-04-10 07:56:00,SystemResetWarning,0828.4,4.99,000.00,025.1,024.4,000.0,033.7,027.0,010.6,0000.0,0003.40,0009.43,0001.57
2024-04-10 07:57:00,SystemResetWarning,0828.4,4.99,000.00,025.1,024.4,000.0,033.6,027.0,010.4,0000.0,0003.42,0009.81,0001.55
2024-04-10 07:58:00,SystemResetWarning,0828.4,5.00,000.00,025.1,024.4,000.0,033.6,026.9,010.6,0000.0,0003.43,0009.85,0001.54
2024-04-10 07:59:00,SystemResetWarning,0828.4,5.01,000.00,025.1,024.4,000.0,033.6,027.0,010.5,0000.0,0003.42,0009.71,0001.53
